Time,TemperatureF,DewpointF,PressureIn,WindDirection,WindDirectionDegrees,WindSpeedMPH,WindSpeedGustMPH,Humidity,HourlyPrecipIn,Conditions,Clouds,dailyrainin,SolarRadiationWatts/m^2,SoftwareType,DateUTC
2013-06-06 00:02:00,61.0,51.5,30.12,NNE,26,0.0,0.0,71,0.00,,,0.00,0,Wunderground v.1.15,2013-06-06 04:02:00,
2013-06-06 00:08:00,60.9,51.4,30.12,North,360,0.0,0.0,71,0.00,,,0.00,0,Wunderground v.1.15,2013-06-06 04:08:00,
2013-06-06 00:14:00,60.5,51.4,30.11,NNE,26,0.0,0.0,72,0.00,,,0.00,0,Wunderground v.1.15,2013-06-06 04:14:00,
2013-06-06 00:22:00,60.4,51.7,30.11,NNE,26,0.0,0.0,73,0.00,,,0.00,0,Wunderground v.1.15,2013-06-06 04:22:00,
2013-06-06 00:24:00,60.4,52.1,30.11,North,360,0.0,0.0,74,0.00,,,0.00,0,Wunderground v.1.15,2013-06-06 04:24:00,
2013-06-06 00:32:00,60.1,52.1,30.11,NNE,26,0.0,0.0,75,0.00,,,0.00,0,Wunderground v.1.15,2013-06-06 04:32:00,
2013-06-06 00:38:00,59.9,52.3,30.11,NNE,26,0.0,0.0,76,0.00,,,0.00,0,Wunderground v.1.15,2013-06-06 04:38:00,
2013-06-06 00:44:00,59.8,52.2,30.11,NNE,26,0.0,0.0,76,0.00,,,0.00,0,Wunderground v.1.15,2013-06-06 04:44:00,
2013-06-06 00:52:00,59.5,52.3,30.11,NNE,26,0.0,0.0,77,0.00,,,0.00,0,Wunderground v.1.15,2013-06-06 04:52:00,
2013-06-06 00:57:00,59.3,52.4,30.11,North,360,0.0,0.0,78,0.00,,,0.00,0,Wunderground v.1.15,2013-06-06 04:57:00,
2013-06-06 01:03:00,59.2,52.7,30.11,North,360,0.0,0.0,79,0.00,,,0.00,0,Wunderground v.1.15,2013-06-06 05:03:00,
2013-06-06 01:09:00,59.0,52.5,30.11,North,360,0.0,0.0,79,0.00,,,0.00,0,Wunderground v.1.15,2013-06-06 05:09:00,
2013-06-06 01:15:00,58.9,52.7,30.10,North,360,0.0,0.0,80,0.00,,,0.00,0,Wunderground v.1.15,2013-06-06 05:15:00,
2013-06-06 01:22:00,58.7,52.9,30.10,NNE,26,0.0,0.0,81,0.00,,,0.00,0,Wunderground v.1.15,2013-06-06 05:22:00,
2013-06-06 01:29:00,58.6,52.8,30.10,NNE,26,0.0,0.0,81,0.00,,,0.00,0,Wunderground v.1.15,2013-06-06 05:29:00,
2013-06-06 01:35:00,58.3,52.8,30.10,North,360,0.0,0.0,82,0.00,,,0.00,0,Wunderground v.1.15,2013-06-06 05:35:00,
2013-06-06 01:42:00,58.1,52.6,30.10,North,360,0.0,0.0,82,0.00,,,0.00,0,Wunderground v.1.15,2013-06-06 05:42:00,
2013-06-06 01:49:00,57.8,52.3,30.10,NNE,26,0.0,0.0,82,0.00,,,0.00,0,Wunderground v.1.15,2013-06-06 05:49:00,
2013-06-06 01:55:00,57.5,52.0,30.10,North,360,1.0,4.0,82,0.00,,,0.00,0,Wunderground v.1.15,2013-06-06 05:55:00,
2013-06-06 02:02:00,57.2,51.4,30.11,North,360,1.0,1.0,81,0.00,,,0.00,0,Wunderground v.1.15,2013-06-06 06:02:00,
2013-06-06 02:09:00,56.9,51.1,30.11,North,360,1.0,1.0,81,0.00,,,0.00,0,Wunderground v.1.15,2013-06-06 06:09:00,
2013-06-06 02:15:00,56.6,50.8,30.11,North,360,1.0,1.0,81,0.00,,,0.00,0,Wunderground v.1.15,2013-06-06 06:15:00,
2013-06-06 02:22:00,56.5,51.1,30.11,North,360,0.0,2.0,82,0.00,,,0.00,0,Wunderground v.1.15,2013-06-06 06:22:00,
2013-06-06 02:27:00,56.3,50.9,30.11,North,360,1.0,3.0,82,0.00,,,0.00,0,Wunderground v.1.15,2013-06-06 06:27:00,
2013-06-06 02:33:00,56.2,50.8,30.11,North,360,1.0,2.0,82,0.00,,,0.00,0,Wunderground v.1.15,2013-06-06 06:33:00,
2013-06-06 02:39:00,56.0,50.9,30.11,North,360,1.0,1.0,83,0.00,,,0.00,0,Wunderground v.1.15,2013-06-06 06:39:00,
2013-06-06 02:45:00,55.9,50.8,30.11,North,360,0.0,1.0,83,0.00,,,0.00,0,Wunderground v.1.15,2013-06-06 06:45:00,
2013-06-06 02:53:00,55.7,50.6,30.11,North,360,0.0,0.0,83,0.00,,,0.00,0,Wunderground v.1.15,2013-06-06 06:53:00,
2013-06-06 02:59:00,55.6,50.5,30.11,North,360,0.0,1.0,83,0.00,,,0.00,0,Wunderground v.1.15,2013-06-06 06:59:00,
2013-06-06 03:04:00,55.4,50.3,30.11,North,360,0.0,2.0,83,0.00,,,0.00,0,Wunderground v.1.15,2013-06-06 07:04:00,
2013-06-06 03:11:00,55.4,50.3,30.11,North,360,1.0,1.0,83,0.00,,,0.00,0,Wunderground v.1.15,2013-06-06 07:11:00,
2013-06-06 03:16:00,55.4,50.3,30.11,North,360,1.0,2.0,83,0.00,,,0.00,0,Wunderground v.1.15,2013-06-06 07:16:00,
2013-06-06 03:22:00,55.4,50.3,30.11,North,360,1.0,2.0,83,0.00,,,0.00,0,Wunderground v.1.15,2013-06-06 07:22:00,
2013-06-06 03:28:00,55.3,50.2,30.11,North,360,0.0,0.0,83,0.00,,,0.00,0,Wunderground v.1.15,2013-06-06 07:28:00,
2013-06-06 03:34:00,55.3,50.2,30.10,North,360,0.0,0.0,83,0.00,,,0.00,0,Wunderground v.1.15,2013-06-06 07:34:00,
2013-06-06 03:41:00,55.1,50.0,30.10,North,360,0.0,0.0,83,0.00,,,0.00,0,Wunderground v.1.15,2013-06-06 07:41:00,
2013-06-06 03:48:00,55.1,50.4,30.10,North,360,0.0,0.0,84,0.00,,,0.00,0,Wunderground v.1.15,2013-06-06 07:48:00,
2013-06-06 03:54:00,55.0,50.3,30.10,North,360,0.0,0.0,84,0.00,,,0.00,0,Wunderground v.1.15,2013-06-06 07:54:00,
2013-06-06 03:59:00,54.8,50.1,30.11,North,360,0.0,0.0,84,0.00,,,0.00,0,Wunderground v.1.15,2013-06-06 07:59:00,
2013-06-06 04:05:00,54.8,50.4,30.11,North,360,0.0,0.0,85,0.00,,,0.00,0,Wunderground v.1.15,2013-06-06 08:05:00,
2013-06-06 04:12:00,54.7,50.3,30.11,North,360,0.0,0.0,85,0.00,,,0.00,0,Wunderground v.1.15,2013-06-06 08:12:00,
2013-06-06 04:17:00,54.7,50.3,30.11,North,360,0.0,0.0,85,0.00,,,0.00,0,Wunderground v.1.15,2013-06-06 08:17:00,
2013-06-06 04:23:00,54.5,50.1,30.11,North,360,0.0,0.0,85,0.00,,,0.00,0,Wunderground v.1.15,2013-06-06 08:23:00,
2013-06-06 04:29:00,54.5,50.4,30.11,North,360,0.0,0.0,86,0.00,,,0.00,0,Wunderground v.1.15,2013-06-06 08:29:00,
2013-06-06 04:35:00,54.4,50.3,30.10,North,360,0.0,0.0,86,0.00,,,0.00,0,Wunderground v.1.15,2013-06-06 08:35:00,
2013-06-06 04:42:00,54.2,50.4,30.10,North,360,0.0,0.0,87,0.00,,,0.00,0,Wunderground v.1.15,2013-06-06 08:42:00,
2013-06-06 04:47:00,54.2,50.4,30.10,North,360,0.0,0.0,87,0.00,,,0.00,0,Wunderground v.1.15,2013-06-06 08:47:00,
2013-06-06 04:53:00,54.2,50.4,30.10,North,360,0.0,0.0,87,0.00,,,0.00,0,Wunderground v.1.15,2013-06-06 08:53:00,
2013-06-06 04:59:00,54.1,50.6,30.10,North,360,0.0,0.0,88,0.00,,,0.00,0,Wunderground v.1.15,2013-06-06 08:59:00,
2013-06-06 05:05:00,54.1,50.6,30.11,North,360,1.0,1.0,88,0.00,,,0.00,0,Wunderground v.1.15,2013-06-06 09:05:00,
2013-06-06 05:12:00,54.1,50.6,30.11,North,360,1.0,1.0,88,0.00,,,0.00,0,Wunderground v.1.15,2013-06-06 09:12:00,
2013-06-06 05:19:00,54.2,51.0,30.10,North,360,1.0,1.0,89,0.00,,,0.00,0,Wunderground v.1.15,2013-06-06 09:19:00,
2013-06-06 05:27:00,54.2,51.0,30.10,North,360,1.0,1.0,89,0.00,,,0.00,0,Wunderground v.1.15,2013-06-06 09:27:00,
2013-06-06 05:33:00,54.4,51.2,30.10,North,360,0.0,0.0,89,0.00,,,0.00,7,Wunderground v.1.15,2013-06-06 09:33:00,
2013-06-06 05:39:00,54.5,51.6,30.10,North,360,0.0,0.0,90,0.00,,,0.00,12,Wunderground v.1.15,2013-06-06 09:39:00,
2013-06-06 05:45:00,54.5,51.6,30.09,North,360,0.0,0.0,90,0.00,,,0.00,18,Wunderground v.1.15,2013-06-06 09:45:00,
2013-06-06 05:51:00,54.8,51.9,30.09,North,360,0.0,0.0,90,0.00,,,0.00,23,Wunderground v.1.15,2013-06-06 09:51:00,
2013-06-06 05:57:00,55.0,52.1,30.09,NNE,24,0.0,0.0,90,0.00,,,0.00,23,Wunderground v.1.15,2013-06-06 09:57:00,
2013-06-06 06:02:00,55.1,52.5,30.10,North,360,0.0,0.0,91,0.00,,,0.00,23,Wunderground v.1.15,2013-06-06 10:02:00,
2013-06-06 06:08:00,55.3,52.7,30.10,NNE,24,0.0,0.0,91,0.00,,,0.00,26,Wunderground v.1.15,2013-06-06 10:08:00,
2013-06-06 06:14:00,55.3,52.7,30.10,North,360,1.0,2.0,91,0.00,,,0.00,30,Wunderground v.1.15,2013-06-06 10:14:00,
2013-06-06 06:21:00,55.4,52.8,30.10,North,360,0.0,1.0,91,0.00,,,0.00,40,Wunderground v.1.15,2013-06-06 10:21:00,
2013-06-06 06:26:00,55.6,53.3,30.10,North,360,0.0,1.0,92,0.00,,,0.00,46,Wunderground v.1.15,2013-06-06 10:26:00,
2013-06-06 06:32:00,55.9,53.6,30.10,North,360,0.0,0.0,92,0.00,,,0.00,44,Wunderground v.1.15,2013-06-06 10:32:00,
2013-06-06 06:38:00,56.2,53.9,30.10,North,360,0.0,0.0,92,0.00,,,0.00,47,Wunderground v.1.15,2013-06-06 10:38:00,
2013-06-06 06:44:00,56.5,54.2,30.11,North,360,0.0,0.0,92,0.00,,,0.00,56,Wunderground v.1.15,2013-06-06 10:44:00,
2013-06-06 06:52:00,57.0,54.7,30.11,North,360,1.0,1.0,92,0.00,,,0.00,95,Wunderground v.1.15,2013-06-06 10:52:00,
2013-06-06 06:59:00,57.3,55.3,30.10,North,360,0.0,0.0,93,0.00,,,0.00,139,Wunderground v.1.15,2013-06-06 10:59:00,
2013-06-06 07:05:00,58.0,56.0,30.10,North,360,0.0,1.0,93,0.00,,,0.00,179,Wunderground v.1.15,2013-06-06 11:05:00,
2013-06-06 07:12:00,58.4,56.4,30.10,North,360,1.0,1.0,93,0.00,,,0.00,98,Wunderground v.1.15,2013-06-06 11:12:00,
2013-06-06 07:19:00,58.7,56.4,30.11,North,360,1.0,2.0,92,0.00,,,0.00,127,Wunderground v.1.15,2013-06-06 11:19:00,
2013-06-06 07:25:00,59.0,56.7,30.11,North,360,1.0,4.0,92,0.00,,,0.00,167,Wunderground v.1.15,2013-06-06 11:25:00,
2013-06-06 07:32:00,59.3,57.0,30.10,North,360,2.0,2.0,92,0.00,,,0.00,213,Wunderground v.1.15,2013-06-06 11:32:00,
2013-06-06 07:37:00,59.6,57.3,30.10,North,360,1.0,2.0,92,0.00,,,0.00,308,Wunderground v.1.15,2013-06-06 11:37:00,
2013-06-06 07:43:00,60.2,57.6,30.10,North,360,1.0,3.0,91,0.00,,,0.00,264,Wunderground v.1.15,2013-06-06 11:43:00,
2013-06-06 07:49:00,60.7,57.7,30.10,NNE,12,1.0,3.0,90,0.00,,,0.00,253,Wunderground v.1.15,2013-06-06 11:49:00,
2013-06-06 07:55:00,61.0,57.7,30.10,North,360,2.0,3.0,89,0.00,,,0.00,327,Wunderground v.1.15,2013-06-06 11:55:00,
2013-06-06 08:03:00,61.5,57.6,30.10,NNE,12,3.0,3.0,87,0.00,,,0.00,199,Wunderground v.1.15,2013-06-06 12:03:00,
2013-06-06 08:09:00,61.6,57.4,30.10,NNE,15,2.0,3.0,86,0.00,,,0.00,190,Wunderground v.1.15,2013-06-06 12:09:00,
2013-06-06 08:15:00,62.0,57.4,30.10,NNE,12,3.0,4.0,85,0.00,,,0.00,160,Wunderground v.1.15,2013-06-06 12:15:00,
2013-06-06 08:23:00,62.1,57.2,30.10,North,360,1.0,5.0,84,0.00,,,0.00,174,Wunderground v.1.15,2013-06-06 12:23:00,
2013-06-06 08:29:00,62.3,57.1,30.10,North,360,2.0,3.0,83,0.00,,,0.00,130,Wunderground v.1.15,2013-06-06 12:29:00,
2013-06-06 08:35:00,62.6,57.4,30.10,North,360,1.0,3.0,83,0.00,,,0.00,229,Wunderground v.1.15,2013-06-06 12:35:00,
2013-06-06 08:41:00,62.9,57.3,30.10,North,360,2.0,2.0,82,0.00,,,0.00,438,Wunderground v.1.15,2013-06-06 12:41:00,
2013-06-06 08:46:00,63.4,57.5,30.10,North,360,2.0,2.0,81,0.00,,,0.00,350,Wunderground v.1.15,2013-06-06 12:46:00,
2013-06-06 08:53:00,64.0,57.4,30.10,NNE,13,1.0,4.0,79,0.00,,,0.00,362,Wunderground v.1.15,2013-06-06 12:53:00,
2013-06-06 08:59:00,64.3,56.9,30.10,NNE,20,2.0,4.0,77,0.00,,,0.00,373,Wunderground v.1.15,2013-06-06 12:59:00,
2013-06-06 09:05:00,64.8,57.1,30.10,NNE,12,1.0,4.0,76,0.00,,,0.00,494,Wunderground v.1.15,2013-06-06 13:05:00,
2013-06-06 09:12:00,65.5,57.0,30.10,North,360,1.0,2.0,74,0.00,,,0.00,538,Wunderground v.1.15,2013-06-06 13:12:00,
2013-06-06 09:18:00,66.0,56.7,30.10,North,360,2.0,4.0,72,0.00,,,0.00,589,Wunderground v.1.15,2013-06-06 13:18:00,
2013-06-06 09:24:00,66.3,56.6,30.10,NNE,14,2.0,4.0,71,0.00,,,0.00,615,Wunderground v.1.15,2013-06-06 13:24:00,
2013-06-06 09:31:00,66.9,56.4,30.09,NNE,14,1.0,3.0,69,0.00,,,0.00,584,Wunderground v.1.15,2013-06-06 13:31:00,
2013-06-06 09:38:00,67.3,55.5,30.09,NNE,13,3.0,3.0,66,0.00,,,0.00,592,Wunderground v.1.15,2013-06-06 13:38:00,
2013-06-06 09:44:00,67.6,55.8,30.08,North,360,3.0,5.0,66,0.00,,,0.00,642,Wunderground v.1.15,2013-06-06 13:44:00,
2013-06-06 09:51:00,68.1,55.9,30.08,NNE,18,2.0,4.0,65,0.00,,,0.00,610,Wunderground v.1.15,2013-06-06 13:51:00,
2013-06-06 09:57:00,68.4,55.3,30.08,NNE,17,2.0,3.0,63,0.00,,,0.00,561,Wunderground v.1.15,2013-06-06 13:57:00,
2013-06-06 10:03:00,68.9,55.3,30.09,NNE,18,2.0,3.0,62,0.00,,,0.00,649,Wunderground v.1.15,2013-06-06 14:03:00,
2013-06-06 10:09:00,68.9,53.5,30.09,North,360,3.0,5.0,58,0.00,,,0.00,640,Wunderground v.1.15,2013-06-06 14:09:00,
2013-06-06 10:15:00,69.4,54.4,30.08,NNE,19,3.0,5.0,59,0.00,,,0.00,608,Wunderground v.1.15,2013-06-06 14:15:00,
2013-06-06 10:23:00,69.9,53.5,30.08,North,360,3.0,3.0,56,0.00,,,0.00,654,Wunderground v.1.15,2013-06-06 14:23:00,
2013-06-06 10:29:00,70.6,52.6,30.08,North,360,2.0,2.0,53,0.00,,,0.00,694,Wunderground v.1.15,2013-06-06 14:29:00,
2013-06-06 10:35:00,71.1,52.6,30.08,North,360,2.0,5.0,52,0.00,,,0.00,721,Wunderground v.1.15,2013-06-06 14:35:00,
2013-06-06 10:42:00,72.0,52.3,30.08,NNE,15,2.0,3.0,50,0.00,,,0.00,577,Wunderground v.1.15,2013-06-06 14:42:00,
2013-06-06 10:47:00,72.1,51.3,30.07,NNE,20,2.0,4.0,48,0.00,,,0.00,594,Wunderground v.1.15,2013-06-06 14:47:00,
2013-06-06 10:53:00,72.0,52.3,30.07,NNE,24,3.0,3.0,50,0.00,,,0.00,585,Wunderground v.1.15,2013-06-06 14:53:00,
2013-06-06 10:59:00,71.8,51.6,30.07,NNE,17,3.0,3.0,49,0.00,,,0.00,490,Wunderground v.1.15,2013-06-06 14:59:00,
2013-06-06 11:05:00,71.8,51.6,30.08,NNE,20,2.0,5.0,49,0.00,,,0.00,332,Wunderground v.1.15,2013-06-06 15:05:00,
2013-06-06 11:12:00,71.5,51.9,30.08,NNE,24,2.0,3.0,50,0.00,,,0.00,399,Wunderground v.1.15,2013-06-06 15:12:00,
2013-06-06 11:19:00,71.3,52.2,30.08,NNE,19,3.0,3.0,51,0.00,,,0.00,659,Wunderground v.1.15,2013-06-06 15:19:00,
2013-06-06 11:25:00,71.6,50.3,30.08,North,360,3.0,7.0,47,0.00,,,0.00,582,Wunderground v.1.15,2013-06-06 15:25:00,
2013-06-06 11:33:00,71.8,50.5,30.07,NNE,22,3.0,3.0,47,0.00,,,0.00,420,Wunderground v.1.15,2013-06-06 15:33:00,
2013-06-06 11:39:00,71.8,52.2,30.07,NNE,15,3.0,3.0,50,0.00,,,0.00,434,Wunderground v.1.15,2013-06-06 15:39:00,
2013-06-06 11:45:00,71.6,49.7,30.07,NNE,20,4.0,5.0,46,0.00,,,0.00,408,Wunderground v.1.15,2013-06-06 15:45:00,
2013-06-06 11:51:00,71.3,49.4,30.07,North,360,4.0,6.0,46,0.00,,,0.00,374,Wunderground v.1.15,2013-06-06 15:51:00,
2013-06-06 11:56:00,71.3,49.4,30.07,NNE,26,3.0,5.0,46,0.00,,,0.00,383,Wunderground v.1.15,2013-06-06 15:56:00,
2013-06-06 12:02:00,71.1,48.1,30.08,North,360,2.0,5.0,44,0.00,,,0.00,380,Wunderground v.1.15,2013-06-06 16:02:00,
2013-06-06 12:08:00,70.8,47.2,30.08,North,360,3.0,6.0,43,0.00,,,0.00,345,Wunderground v.1.15,2013-06-06 16:08:00,
2013-06-06 12:14:00,70.8,48.4,30.07,NNE,20,3.0,6.0,45,0.00,,,0.00,336,Wunderground v.1.15,2013-06-06 16:14:00,
2013-06-06 12:22:00,70.8,47.8,30.07,NNE,17,2.0,6.0,44,0.00,,,0.00,322,Wunderground v.1.15,2013-06-06 16:22:00,
2013-06-06 12:28:00,70.4,46.8,30.07,NNE,16,4.0,4.0,43,0.00,,,0.00,341,Wunderground v.1.15,2013-06-06 16:28:00,
2013-06-06 12:34:00,70.4,46.2,30.07,North,360,4.0,7.0,42,0.00,,,0.00,346,Wunderground v.1.15,2013-06-06 16:34:00,
2013-06-06 12:41:00,70.3,45.5,30.07,NNE,22,5.0,5.0,41,0.00,,,0.00,378,Wunderground v.1.15,2013-06-06 16:41:00,
2013-06-06 12:48:00,70.3,45.5,30.06,NNE,16,5.0,6.0,41,0.00,,,0.00,415,Wunderground v.1.15,2013-06-06 16:48:00,
2013-06-06 12:53:00,70.3,46.1,30.06,NNE,20,5.0,6.0,42,0.00,,,0.00,418,Wunderground v.1.15,2013-06-06 16:53:00,
2013-06-06 12:59:00,70.8,45.3,30.06,NNE,20,3.0,3.0,40,0.00,,,0.00,373,Wunderground v.1.15,2013-06-06 16:59:00,
2013-06-06 13:05:00,71.1,44.9,30.06,NNE,20,3.0,6.0,39,0.00,,,0.00,401,Wunderground v.1.15,2013-06-06 17:05:00,
2013-06-06 13:12:00,70.9,42.6,30.06,NNE,22,5.0,10.0,36,0.00,,,0.00,397,Wunderground v.1.15,2013-06-06 17:12:00,
2013-06-06 13:17:00,70.8,44.6,30.05,NNE,15,6.0,10.0,39,0.00,,,0.00,422,Wunderground v.1.15,2013-06-06 17:17:00,
2013-06-06 13:23:00,70.9,44.0,30.05,NNE,19,4.0,7.0,38,0.00,,,0.00,464,Wunderground v.1.15,2013-06-06 17:23:00,
2013-06-06 13:29:00,71.1,42.8,30.06,NNE,18,5.0,5.0,36,0.00,,,0.00,712,Wunderground v.1.15,2013-06-06 17:29:00,
2013-06-06 13:35:00,72.0,42.8,30.06,NNE,23,5.0,6.0,35,0.00,,,0.00,489,Wunderground v.1.15,2013-06-06 17:35:00,
2013-06-06 13:42:00,72.1,43.7,30.06,North,360,4.0,4.0,36,0.00,,,0.00,571,Wunderground v.1.15,2013-06-06 17:42:00,
2013-06-06 13:49:00,72.1,42.9,30.06,NNE,16,4.0,5.0,35,0.00,,,0.00,622,Wunderground v.1.15,2013-06-06 17:49:00,
2013-06-06 13:55:00,72.3,43.8,30.06,NNE,16,5.0,6.0,36,0.00,,,0.00,547,Wunderground v.1.15,2013-06-06 17:55:00,
2013-06-06 14:02:00,72.7,41.9,30.06,NNE,14,5.0,5.0,33,0.00,,,0.00,404,Wunderground v.1.15,2013-06-06 18:02:00,
2013-06-06 14:07:00,72.3,43.8,30.06,NNE,15,4.0,8.0,36,0.00,,,0.00,315,Wunderground v.1.15,2013-06-06 18:07:00,
2013-06-06 14:13:00,71.6,43.9,30.06,NNE,24,4.0,5.0,37,0.00,,,0.00,276,Wunderground v.1.15,2013-06-06 18:13:00,
2013-06-06 14:19:00,71.5,43.8,30.05,NNE,28,3.0,3.0,37,0.00,,,0.00,288,Wunderground v.1.15,2013-06-06 18:19:00,
2013-06-06 14:25:00,71.3,44.4,30.05,NNE,25,2.0,4.0,38,0.00,,,0.00,241,Wunderground v.1.15,2013-06-06 18:25:00,
2013-06-06 14:31:00,70.9,43.3,30.05,NNE,19,3.0,5.0,37,0.00,,,0.00,206,Wunderground v.1.15,2013-06-06 18:31:00,
2013-06-06 14:39:00,70.6,44.4,30.05,North,360,3.0,7.0,39,0.00,,,0.00,227,Wunderground v.1.15,2013-06-06 18:39:00,
2013-06-06 14:44:00,70.4,44.3,30.06,NNE,17,4.0,7.0,39,0.00,,,0.00,186,Wunderground v.1.15,2013-06-06 18:44:00,
2013-06-06 14:51:00,70.1,44.0,30.06,NNE,13,4.0,4.0,39,0.00,,,0.00,141,Wunderground v.1.15,2013-06-06 18:51:00,
2013-06-06 14:57:00,69.9,44.5,30.06,NNE,19,4.0,4.0,40,0.00,,,0.00,128,Wunderground v.1.15,2013-06-06 18:57:00,
2013-06-06 15:02:00,69.8,45.0,30.04,NNE,19,4.0,4.0,41,0.00,,,0.00,127,Wunderground v.1.15,2013-06-06 19:02:00,
2013-06-06 15:08:00,69.8,46.3,30.04,NNE,19,3.0,3.0,43,0.00,,,0.00,206,Wunderground v.1.15,2013-06-06 19:08:00,
2013-06-06 15:14:00,69.8,45.7,30.05,NNE,20,3.0,6.0,42,0.00,,,0.00,200,Wunderground v.1.15,2013-06-06 19:14:00,
2013-06-06 15:22:00,69.9,47.0,30.05,NNE,19,2.0,7.0,44,0.00,,,0.00,171,Wunderground v.1.15,2013-06-06 19:22:00,
2013-06-06 15:28:00,69.8,47.5,30.05,North,360,2.0,4.0,45,0.00,,,0.00,156,Wunderground v.1.15,2013-06-06 19:28:00,
2013-06-06 15:34:00,69.6,48.5,30.05,NNE,22,3.0,4.0,47,0.00,,,0.00,179,Wunderground v.1.15,2013-06-06 19:34:00,
2013-06-06 15:42:00,69.6,48.5,30.05,NNE,18,2.0,2.0,47,0.00,,,0.00,220,Wunderground v.1.15,2013-06-06 19:42:00,
2013-06-06 15:48:00,69.8,49.8,30.04,NNE,22,2.0,2.0,49,0.00,,,0.00,183,Wunderground v.1.15,2013-06-06 19:48:00,
2013-06-06 15:54:00,69.6,50.1,30.04,NNE,20,3.0,5.0,50,0.00,,,0.00,132,Wunderground v.1.15,2013-06-06 19:54:00,
2013-06-06 15:59:00,69.4,49.9,30.04,NNE,15,3.0,4.0,50,0.00,,,0.00,69,Wunderground v.1.15,2013-06-06 19:59:00,
2013-06-06 16:05:00,69.3,50.4,30.04,NNE,28,2.0,4.0,51,0.00,,,0.00,83,Wunderground v.1.15,2013-06-06 20:05:00,
2013-06-06 16:09:00,69.1,51.8,30.04,NNE,28,2.0,2.0,54,0.00,,,0.00,84,Wunderground v.1.15,2013-06-06 20:09:00,
2013-06-06 16:15:00,68.8,52.9,30.04,North,360,2.0,3.0,57,0.00,,,0.00,58,Wunderground v.1.15,2013-06-06 20:15:00,
2013-06-06 16:23:00,68.6,53.2,30.04,North,360,2.0,2.0,58,0.00,,,0.00,51,Wunderground v.1.15,2013-06-06 20:23:00,
2013-06-06 16:29:00,68.3,52.9,30.03,North,360,2.0,3.0,58,0.00,,,0.00,44,Wunderground v.1.15,2013-06-06 20:29:00,
2013-06-06 16:35:00,68.1,53.7,30.03,North,360,2.0,5.0,60,0.00,,,0.00,42,Wunderground v.1.15,2013-06-06 20:35:00,
2013-06-06 16:42:00,67.9,53.5,30.03,NNE,17,3.0,3.0,60,0.00,,,0.00,56,Wunderground v.1.15,2013-06-06 20:42:00,
2013-06-06 16:47:00,67.8,54.3,30.03,North,360,3.0,4.0,62,0.00,,,0.00,49,Wunderground v.1.15,2013-06-06 20:47:00,
2013-06-06 16:53:00,67.8,55.2,30.03,North,360,2.0,3.0,64,0.00,,,0.00,40,Wunderground v.1.15,2013-06-06 20:53:00,
2013-06-06 16:59:00,67.6,55.8,30.03,North,360,0.0,0.0,66,0.00,,,0.00,37,Wunderground v.1.15,2013-06-06 20:59:00,
2013-06-06 17:05:00,67.4,56.1,30.04,North,360,0.0,1.0,67,0.00,,,0.00,33,Wunderground v.1.15,2013-06-06 21:05:00,
2013-06-06 17:13:00,66.8,56.7,30.04,North,360,2.0,3.0,70,0.00,,,0.00,33,Wunderground v.1.15,2013-06-06 21:13:00,
2013-06-06 17:19:00,66.4,56.7,30.04,NNE,24,2.0,2.0,71,0.00,,,0.00,35,Wunderground v.1.15,2013-06-06 21:19:00,
2013-06-06 17:25:00,66.3,57.4,30.04,NNE,22,1.0,5.0,73,0.00,,,0.00,39,Wunderground v.1.15,2013-06-06 21:25:00,
2013-06-06 17:33:00,66.1,57.9,30.03,NNE,24,1.0,1.0,75,0.00,,,0.00,40,Wunderground v.1.15,2013-06-06 21:33:00,
2013-06-06 17:39:00,66.0,58.2,30.03,North,360,0.0,0.0,76,0.00,,,0.01,42,Wunderground v.1.15,2013-06-06 21:39:00,
2013-06-06 17:45:00,66.0,58.9,30.02,NNE,19,0.0,0.0,78,0.00,,,0.01,40,Wunderground v.1.15,2013-06-06 21:45:00,
2013-06-06 17:52:00,65.8,59.1,30.02,NNE,23,0.0,1.0,79,0.00,,,0.01,42,Wunderground v.1.15,2013-06-06 21:52:00,
2013-06-06 17:58:00,65.8,59.5,30.02,NNE,23,0.0,0.0,80,0.00,,,0.01,42,Wunderground v.1.15,2013-06-06 21:58:00,
2013-06-06 18:04:00,65.5,58.8,30.02,NNE,24,1.0,3.0,79,0.00,,,0.01,53,Wunderground v.1.15,2013-06-06 22:04:00,
2013-06-06 18:11:00,65.2,58.5,30.02,North,11,2.0,2.0,79,0.00,,,0.02,60,Wunderground v.1.15,2013-06-06 22:11:00,
2013-06-06 18:18:00,65.2,58.5,30.02,North,360,2.0,2.0,79,0.00,,,0.02,37,Wunderground v.1.15,2013-06-06 22:18:00,
2013-06-06 18:24:00,65.0,58.3,30.02,NNE,20,2.0,2.0,79,0.00,,,0.02,40,Wunderground v.1.15,2013-06-06 22:24:00,
2013-06-06 18:31:00,65.0,58.3,30.01,North,360,2.0,2.0,79,0.00,,,0.02,46,Wunderground v.1.15,2013-06-06 22:31:00,
2013-06-06 18:38:00,65.0,58.0,30.01,North,360,2.0,2.0,78,0.00,,,0.02,44,Wunderground v.1.15,2013-06-06 22:38:00,
2013-06-06 18:44:00,65.0,58.3,30.01,NNE,17,2.0,5.0,79,0.00,,,0.02,33,Wunderground v.1.15,2013-06-06 22:44:00,
2013-06-06 18:49:00,65.0,58.3,30.02,NNE,27,2.0,2.0,79,0.00,,,0.02,42,Wunderground v.1.15,2013-06-06 22:49:00,
2013-06-06 18:55:00,65.0,58.3,30.02,NNE,17,2.0,3.0,79,0.00,,,0.02,42,Wunderground v.1.15,2013-06-06 22:55:00,
2013-06-06 19:02:00,65.0,58.3,30.02,NNE,18,3.0,9.0,79,0.00,,,0.02,44,Wunderground v.1.15,2013-06-06 23:02:00,
2013-06-06 19:07:00,65.0,58.3,30.02,NNE,22,3.0,3.0,79,0.00,,,0.02,40,Wunderground v.1.15,2013-06-06 23:07:00,
2013-06-06 19:13:00,65.0,58.3,30.02,North,360,2.0,3.0,79,0.00,,,0.02,35,Wunderground v.1.15,2013-06-06 23:13:00,
2013-06-06 19:19:00,65.0,58.3,30.02,NNE,16,2.0,3.0,79,0.00,,,0.02,28,Wunderground v.1.15,2013-06-06 23:19:00,
2013-06-06 19:25:00,65.0,58.7,30.02,North,360,2.0,3.0,80,0.00,,,0.02,26,Wunderground v.1.15,2013-06-06 23:25:00,
2013-06-06 19:33:00,64.8,58.5,30.02,North,360,2.0,2.0,80,0.00,,,0.02,21,Wunderground v.1.15,2013-06-06 23:33:00,
2013-06-06 19:39:00,64.8,58.8,30.02,North,360,1.0,3.0,81,0.00,,,0.02,16,Wunderground v.1.15,2013-06-06 23:39:00,
2013-06-06 19:45:00,64.7,58.7,30.02,NNE,24,2.0,6.0,81,0.00,,,0.02,7,Wunderground v.1.15,2013-06-06 23:45:00,
2013-06-06 19:52:00,64.5,58.9,30.02,North,360,2.0,4.0,82,0.00,,,0.02,0,Wunderground v.1.15,2013-06-06 23:52:00,
2013-06-06 19:59:00,64.3,58.7,30.02,NNE,26,1.0,3.0,82,0.00,,,0.02,0,Wunderground v.1.15,2013-06-06 23:59:00,
2013-06-06 20:05:00,64.3,59.0,30.02,North,360,2.0,3.0,83,0.00,,,0.02,0,Wunderground v.1.15,2013-06-07 00:05:00,
2013-06-06 20:13:00,64.0,59.1,30.02,NNE,23,1.0,2.0,84,0.00,,,0.03,0,Wunderground v.1.15,2013-06-07 00:13:00,
2013-06-06 20:19:00,64.0,59.4,30.02,NNE,19,1.0,1.0,85,0.00,,,0.03,0,Wunderground v.1.15,2013-06-07 00:19:00,
2013-06-06 20:25:00,63.9,59.3,30.02,NNE,21,1.0,1.0,85,0.00,,,0.03,0,Wunderground v.1.15,2013-06-07 00:25:00,
2013-06-06 20:33:00,63.7,59.4,30.02,NNE,22,0.0,1.0,86,0.00,,,0.03,0,Wunderground v.1.15,2013-06-07 00:33:00,
2013-06-06 20:38:00,63.7,59.8,30.02,NNE,17,1.0,1.0,87,0.00,,,0.04,0,Wunderground v.1.15,2013-06-07 00:38:00,
2013-06-06 20:44:00,63.5,59.6,30.01,NNE,17,1.0,3.0,87,0.00,,,0.04,0,Wunderground v.1.15,2013-06-07 00:44:00,
2013-06-06 20:51:00,63.4,59.8,30.01,NNE,22,1.0,1.0,88,0.00,,,0.04,0,Wunderground v.1.15,2013-06-07 00:51:00,
2013-06-06 20:58:00,63.4,59.8,30.01,North,360,1.0,2.0,88,0.00,,,0.04,0,Wunderground v.1.15,2013-06-07 00:58:00,
2013-06-06 21:04:00,63.2,59.6,30.02,North,360,1.0,2.0,88,0.00,,,0.04,0,Wunderground v.1.15,2013-06-07 01:04:00,
2013-06-06 21:11:00,63.1,59.8,30.02,NNE,20,1.0,4.0,89,0.00,,,0.04,0,Wunderground v.1.15,2013-06-07 01:11:00,
2013-06-06 21:16:00,63.1,59.8,30.00,NNE,17,2.0,4.0,89,0.00,,,0.04,0,Wunderground v.1.15,2013-06-07 01:16:00,
2013-06-06 21:22:00,62.9,59.6,30.00,North,360,1.0,3.0,89,0.00,,,0.04,0,Wunderground v.1.15,2013-06-07 01:22:00,
2013-06-06 21:28:00,62.7,59.4,30.00,NNE,22,1.0,1.0,89,0.00,,,0.05,0,Wunderground v.1.15,2013-06-07 01:28:00,
2013-06-06 21:34:00,62.7,59.7,30.01,NNE,24,2.0,3.0,90,0.00,,,0.05,0,Wunderground v.1.15,2013-06-07 01:34:00,
2013-06-06 21:42:00,62.6,59.6,30.01,NNE,18,2.0,4.0,90,0.00,,,0.05,0,Wunderground v.1.15,2013-06-07 01:42:00,
2013-06-06 21:47:00,62.4,59.4,30.00,NNE,16,2.0,5.0,90,0.00,,,0.06,0,Wunderground v.1.15,2013-06-07 01:47:00,
2013-06-06 21:53:00,62.4,59.4,30.00,NNE,21,2.0,2.0,90,0.00,,,0.06,0,Wunderground v.1.15,2013-06-07 01:53:00,
2013-06-06 21:59:00,62.4,59.7,30.01,NNE,20,1.0,1.0,91,0.00,,,0.06,0,Wunderground v.1.15,2013-06-07 01:59:00,
2013-06-06 22:05:00,62.3,59.6,30.01,NNE,24,1.0,2.0,91,0.00,,,0.06,0,Wunderground v.1.15,2013-06-07 02:05:00,
2013-06-06 22:12:00,62.3,59.6,30.01,North,360,1.0,1.0,91,0.00,,,0.07,0,Wunderground v.1.15,2013-06-07 02:12:00,
2013-06-06 22:19:00,62.3,59.9,30.02,NNE,24,0.0,0.0,92,0.00,,,0.07,0,Wunderground v.1.15,2013-06-07 02:19:00,
2013-06-06 22:25:00,62.1,59.7,30.02,NNE,22,1.0,1.0,92,0.00,,,0.07,0,Wunderground v.1.15,2013-06-07 02:25:00,
2013-06-06 22:33:00,62.1,59.7,30.02,NNE,20,0.0,1.0,92,0.00,,,0.07,0,Wunderground v.1.15,2013-06-07 02:33:00,
2013-06-06 22:39:00,62.0,59.6,30.02,NNE,20,0.0,0.0,92,0.00,,,0.08,0,Wunderground v.1.15,2013-06-07 02:39:00,
2013-06-06 22:47:00,62.0,60.0,30.02,North,360,2.0,2.0,93,0.16,,,0.10,0,Wunderground v.1.15,2013-06-07 02:47:00,
2013-06-06 23:00:00,61.8,59.8,30.01,North,360,1.0,1.0,93,0.05,,,0.11,0,Wunderground v.1.15,2013-06-07 03:00:00,
2013-06-06 23:08:00,61.8,59.8,30.01,North,360,1.0,1.0,93,0.05,,,0.11,0,Wunderground v.1.15,2013-06-07 03:08:00,
2013-06-06 23:19:00,61.6,59.9,30.00,NNE,18,1.0,1.0,94,0.09,,,0.13,0,Wunderground v.1.15,2013-06-07 03:19:00,
2013-06-06 23:27:00,61.5,59.8,30.00,NNE,22,1.0,1.0,94,0.11,,,0.14,0,Wunderground v.1.15,2013-06-07 03:27:00,
2013-06-06 23:37:00,61.3,59.6,30.00,NNE,19,1.0,4.0,94,0.12,,,0.16,0,Wunderground v.1.15,2013-06-07 03:37:00,
2013-06-06 23:46:00,61.2,59.5,30.00,NNE,15,2.0,4.0,94,0.09,,,0.17,0,Wunderground v.1.15,2013-06-07 03:46:00,
2013-06-06 23:58:00,61.0,59.6,30.00,North,360,2.0,2.0,95,0.06,,,0.18,0,Wunderground v.1.15,2013-06-07 03:58:00,